TimeMDT,TemperatureF,Dew PointF,Humidity,Sea Level PressureIn,VisibilityMPH,Wind Direction,Wind SpeedMPH,Gust SpeedMPH,PrecipitationIn,Events,Conditions,WindDirDegrees,DateUTC
12:53 AM,69.1,52.0,54,29.80,10.0,WSW,8.1,-,N/A,,Mostly Cloudy,240,2013-07-12 06:53:00
1:53 AM,70.0,50.0,49,29.77,10.0,Calm,Calm,-,N/A,,Scattered Clouds,0,2013-07-12 07:53:00
2:53 AM,66.0,51.1,59,29.77,10.0,Calm,Calm,-,N/A,,Scattered Clouds,0,2013-07-12 08:53:00
3:53 AM,66.0,51.1,59,29.77,10.0,Calm,Calm,-,N/A,,Scattered Clouds,0,2013-07-12 09:53:00
4:53 AM,66.0,50.0,56,29.78,10.0,SW,5.8,-,N/A,,Scattered Clouds,230,2013-07-12 10:53:00
5:53 AM,69.1,48.9,49,29.78,10.0,WSW,9.2,-,N/A,,Scattered Clouds,240,2013-07-12 11:53:00
6:53 AM,68.0,53.1,59,29.81,10.0,NE,6.9,-,N/A,,Scattered Clouds,50,2013-07-12 12:53:00
7:53 AM,73.9,50.0,43,29.83,10.0,SW,4.6,-,N/A,,Mostly Cloudy,220,2013-07-12 13:53:00
8:53 AM,81.0,46.9,30,29.82,10.0,NNE,3.5,-,N/A,,Scattered Clouds,20,2013-07-12 14:53:00
9:53 AM,82.9,48.9,31,29.86,10.0,Variable,4.6,-,N/A,,Scattered Clouds,0,2013-07-12 15:53:00
10:53 AM,86.0,46.9,26,29.86,10.0,ENE,10.4,-,N/A,,Scattered Clouds,60,2013-07-12 16:53:00
11:53 AM,88.0,46.9,24,29.84,10.0,ESE,9.2,-,N/A,,Scattered Clouds,110,2013-07-12 17:53:00
12:53 PM,89.1,46.0,22,29.83,10.0,ENE,10.4,19.6,N/A,,Scattered Clouds,60,2013-07-12 18:53:00
1:53 PM,89.1,46.0,22,29.79,10.0,ENE,11.5,23.0,N/A,,Scattered Clouds,60,2013-07-12 19:53:00
2:46 PM,87.8,46.4,24,30.07,10.0,Variable,6.9,-,N/A,Thunderstorm,Thunderstorm,0,2013-07-12 20:46:00
2:53 PM,87.1,46.0,24,29.82,10.0,ENE,8.1,-,N/A,Thunderstorm,Thunderstorm,60,2013-07-12 20:53:00
3:15 PM,78.8,53.6,42,30.10,8.0,SW,20.7,28.8,0.00,Rain-Thunderstorm,Light Thunderstorms and Rain,220,2013-07-12 21:15:00
3:53 PM,78.1,59.0,52,29.87,10.0,North,9.2,-,0.01,Thunderstorm,Thunderstorm,350,2013-07-12 21:53:00
4:08 PM,82.4,55.4,39,30.08,10.0,NNW,12.7,-,N/A,,Mostly Cloudy,330,2013-07-12 22:08:00
4:53 PM,81.0,57.0,44,29.86,10.0,NNW,19.6,24.2,N/A,,Mostly Cloudy,340,2013-07-12 22:53:00
5:53 PM,78.1,54.0,43,29.86,10.0,NW,18.4,-,N/A,,Mostly Cloudy,320,2013-07-12 23:53:00
6:53 PM,75.0,54.0,48,29.90,10.0,WNW,11.5,-,N/A,,Mostly Cloudy,300,2013-07-13 00:53:00
7:04 PM,75.2,53.6,47,30.14,10.0,West,16.1,-,N/A,Thunderstorm,Thunderstorm,270,2013-07-13 01:04:00
7:53 PM,73.0,55.0,53,29.89,10.0,NNW,8.1,-,N/A,Thunderstorm,Thunderstorm,330,2013-07-13 01:53:00
8:10 PM,71.6,55.4,57,30.13,10.0,West,9.2,-,0.00,,Mostly Cloudy,260,2013-07-13 02:10:00
8:20 PM,71.6,57.2,60,30.14,10.0,West,8.1,-,0.00,Thunderstorm,Thunderstorm,270,2013-07-13 02:20:00
8:53 PM,70.0,57.0,63,29.89,10.0,NW,3.5,-,0.00,Rain-Thunderstorm,Light Thunderstorms and Rain,310,2013-07-13 02:53:00
8:59 PM,69.8,57.2,64,30.13,10.0,NNE,5.8,-,0.00,,Mostly Cloudy,30,2013-07-13 02:59:00
9:53 PM,69.1,57.9,68,29.90,10.0,SSW,3.5,-,0.00,,Mostly Cloudy,210,2013-07-13 03:53:00
10:53 PM,70.0,57.0,63,29.89,10.0,Calm,Calm,-,N/A,,Mostly Cloudy,0,2013-07-13 04:53:00
11:53 PM,69.1,57.0,65,29.91,10.0,SE,5.8,-,N/A,,Mostly Cloudy,140,2013-07-13 05:53:00